RH
74 71 70 67 66 66 65 64 62 60 58 57 56 54 53 51 49 47 45 42 40 38 36 34 33 32 31 30 29 29 28 29 29 29 31 33 35 38 40 43 45 46 47 49 50 50 49 49 48 47 49 49 49 54 61 70 78 83 88 90 92 97 99 100 97 73 48 55 67 64 68 79 78 77 84 86 85 87 86 84 83 82 81 80 79
80 78 76 75 73 71 69 66 62 59 56 54 51 49 47 44 41 37 34 30 28 25 23 21 20 19 18 17 16 15 14 14 14 13 13 14 16 18 21 24 27 31 36 40 45 50 53 55 56 56 57 58 59 61 62 65 72 78 86 92 95 99 101 99 100 95 70 55 67 76 76 82 83 76 81 88 84 85 88 86 84 84 83 80 79
80 77 74 72 69 66 62 59 55 52 49 46 43 39 36 32 28 24 20 17 14 12 11 11 10 9 9 9 8 8 8 8 8 7 7 7 7 7 8 9 10 13 17 22 28 36 44 52 59 66 69 72 75 79 81 82 84 86 88 93 97 99 101 101 99 103 92 68 66 81 87 92 95 87 86 92 90 89 92 92 91 92 90 88 87
71 69 66 63 60 57 54 50 47 44 40 36 32 27 24 20 16 14 12 10 9 8 8 7 7 7 7 7 6 6 6 6 6 6 6 6 6 6 6 6 6 7 8 9 11 15 22 31 44 61 74 80 85 91 97 98 98 99 100 99 101 100 100 101 99 99 101 88 78 83 90 93 96 93 88 89 89 90 92 94 95 96 95 95 95
65 62 59 56 53 50 47 42 38 32 27 22 19 16 14 12 11 10 9 9 8 8 7 6 6 6 5 5 5 5 5 5 5 5 5 5 5 5 5 6 6 6 6 7 7 7 9 12 17 29 44 56 68 82 96 103 102 101 101 99 99 100 99 101 101 99 100 100 94 93 97 98 98 98 95 93 93 91 90 91 93 94 95 96 98
61 57 54 50 46 42 37 30 24 19 15 13 12 11 10 10 9 9 8 8 7 6 6 5 5 4 4 4 3 3 3 3 3 3 3 4 4 4 4 4 5 5 5 6 7 7 7 8 8 10 15 21 29 41 59 78 91 98 102 102 101 102 101 99 100 101 99 100 98 94 96 100 102 102 101 100 101 99 97 97 96 95 95 96 98
57 54 50 44 37 29 22 16 14 12 11 10 10 10 9 8 8 7 6 6 5 5 5 4 4 3 3 3 3 3 3 3 3 3 3 3 3 3 3 4 4 4 4 4 5 6 5 6 7 8 9 10 11 14 20 30 44 57 69 80 87 91 96 98 99 101 102 101 100 97 95 97 101 103 102 102 103 101 101 102 101 99 99 99 98
53 47 40 31 23 16 12 11 11 10 10 9 9 8 7 7 6 5 5 4 4 4 3 3 3 3 3 3 3 4 3 4 4 4 4 4 4 4 4 4 4 4 4 4 4 5 5 5 6 6 7 9 10 11 12 12 15 19 24 32 40 47 56 65 73 80 87 92 95 97 97 96 99 101 103 104 103 101 101 103 103 101 100 101 100
42 32 24 17 13 10 10 10 9 9 9 7 7 6 5 5 4 4 4 4 4 4 4 4 4 4 5 6 6 6 6 7 7 8 9 9 8 9 8 7 7 6 6 6 5 5 5 5 6 6 7 8 9 10 12 14 15 15 16 17 19 22 24 29 34 40 47 56 63 70 76 81 86 91 95 98 100 101 101 102 104 102 100 100 100
23 17 13 11 11 10 10 9 8 7 6 5 5 4 4 4 4 4 5 5 5 6 6 7 8 8 8 9 9 10 10 11 12 12 13 14 14 14 13 13 12 12 11 10 10 9 9 8 8 9 9 9 11 12 13 15 16 17 19 20 21 22 23 24 26 27 30 32 32 35 39 44 50 58 66 75 83 88 90 94 99 100 99 98 96
12 12 12 11 11 10 8 7 6 5 4 4 4 4 5 5 6 6 7 8 9 9 10 10 11 11 11 11 12 12 13 13 14 15 16 18 19 18 18 17 16 16 16 15 14 14 14 14 13 13 14 14 14 15 15 16 17 19 21 24 28 30 31 31 31 33 36 35 31 30 31 30 30 36 45 53 62 71 74 78 84 89 92 93 92
12 12 11 10 8 7 6 5 4 4 5 5 6 7 8 9 9 10 10 11 11 11 12 12 12 13 13 13 13 13 13 14 15 17 18 19 21 23 22 20 18 18 18 17 18 18 19 19 19 18 19 19 19 19 19 19 19 21 23 26 32 37 42 43 42 40 41 42 41 39 39 38 37 41 49 57 64 69 69 68 70 74 76 79 82
12 10 8 7 5 4 4 4 5 6 8 9 10 11 11 12 12 12 12 12 12 12 13 13 13 13 13 13 14 14 14 16 17 19 20 21 24 28 28 24 20 19 20 20 20 21 21 22 22 23 23 24 24 24 24 24 24 25 27 28 32 37 43 49 51 50 48 49 49 48 48 50 50 49 55 66 73 75 74 71 67 66 66 67 70
9 7 5 5 4 5 7 8 9 11 12 12 13 13 13 13 13 13 13 13 13 13 13 13 13 14 14 14 15 15 15 17 18 20 23 25 29 34 33 28 25 24 24 25 24 24 25 25 26 27 29 30 30 30 29 29 29 30 32 34 36 39 42 45 50 54 55 57 58 56 54 58 61 58 59 70 79 79 75 68 62 60 62 64 66
6 5 6 7 8 10 11 12 13 13 13 14 14 13 14 13 14 14 14 14 14 14 14 14 14 14 15 15 15 15 16 18 19 21 25 29 35 40 37 32 32 32 31 32 32 32 32 32 33 33 35 36 37 38 37 36 35 36 39 42 45 47 48 48 49 51 56 63 66 65 62 65 69 66 63 67 71 68 62 58 58 62 66 67 66
7 8 10 12 13 14 14 14 14 14 14 14 14 14 14 14 15 15 14 14 15 14 14 14 14 14 15 16 16 16 17 19 21 23 27 34 42 44 39 36 37 38 37 38 40 40 39 40 40 40 41 43 45 46 45 44 44 45 46 47 49 51 53 55 56 57 60 65 68 67 67 68 70 70 69 70 67 65 64 63 64 67 66 62 60
12 13 14 15 15 15 15 14 14 15 15 15 15 15 15 15 15 15 15 14 14 14 14 15 16 16 17 18 18 18 19 22 24 26 30 38 47 47 42 40 40 40 40 41 44 46 45 46 48 48 47 50 52 54 55 56 57 57 55 52 51 50 51 54 58 64 71 75 74 71 69 69 71 75 79 79 74 73 74 73 71 70 66 62 60
15 16 16 16 15 15 15 16 15 16 16 16 16 15 15 15 15 15 15 15 15 15 16 16 18 20 20 21 22 22 22 24 26 28 32 40 49 50 45 42 40 40 41 43 46 50 49 50 56 58 56 57 59 62 66 69 70 70 67 61 56 54 53 51 53 61 70 78 81 79 76 75 75 77 81 81 78 76 76 74 74 73 68 66 64
17 16 16 16 16 17 17 17 17 17 17 16 16 16 16 16 16 16 17 17 17 18 19 20 21 23 24 25 26 27 27 28 29 30 33 40 49 52 48 43 42 43 45 45 47 50 51 53 61 67 67 66 66 69 76 84 88 86 80 72 65 62 60 55 54 59 65 71 77 79 80 81 80 79 81 82 81 79 77 74 73 71 67 66 66
17 17 17 17 18 18 18 18 18 17 17 17 16 17 18 17 18 19 19 20 21 21 23 24 25 27 29 30 30 31 31 31 31 33 33 38 47 51 49 45 45 47 50 50 49 49 52 57 65 74 79 77 73 76 86 97 102 99 95 89 78 71 67 64 63 66 67 68 72 75 77 80 82 82 83 84 86 85 82 77 74 72 70 67 67
18 18 19 19 19 19 19 19 19 18 18 19 19 20 21 21 21 22 22 23 24 25 27 29 29 30 32 32 33 33 33 32 32 33 34 36 44 51 50 47 49 52 52 51 50 50 55 62 71 82 90 89 85 87 96 104 105 102 102 100 89 77 73 72 73 75 75 76 77 77 77 78 80 80 79 80 82 82 79 76 75 74 74 70 68
20 20 20 21 20 20 20 20 20 20 21 22 23 24 25 24 25 25 25 26 27 29 30 32 32 33 33 34 34 34 34 35 35 36 38 39 45 54 56 53 55 58 56 54 56 58 63 70 77 87 96 97 97 99 104 106 104 101 102 102 96 87 82 80 80 81 82 85 85 85 85 85 84 83 82 80 79 78 75 75 77 80 81 79 75
22 22 22 22 21 21 22 22 23 24 25 26 26 27 27 27 28 29 29 30 31 32 33 34 34 34 33 34 36 37 39 41 42 43 45 46 49 56 61 60 60 63 62 61 62 65 69 78 86 92 99 102 103 104 104 103 102 101 102 103 102 99 95 93 92 91 89 88 87 86 88 90 87 86 87 85 83 80 79 80 83 86 85 81 77
23 23 23 22 22 23 24 25 27 28 28 29 29 30 30 31 32 33 33 33 33 34 35 35 34 34 35 37 40 43 45 47 49 51 52 53 54 58 62 64 66 70 72 72 73 75 79 87 93 96 100 104 106 104 102 101 101 101 101 103 103 104 104 103 102 100 97 92 88 85 86 87 85 84 84 82 79 78 79 81 82 81 78 74 72
24 24 24 23 24 25 27 29 30 31 32 32 33 34 34 34 34 35 35 35 36 36 36 36 35 36 39 42 45 48 50 53 56 59 60 61 61 63 65 67 71 77 83 86 89 90 92 94 95 95 97 100 103 104 104 103 103 102 102 103 102 102 103 103 104 105 103 98 94 92 90 88 85 83 81 79 77 77 78 77 75 73 72 70 67
24 24 24 24 25 27 30 32 34 35 36 37 38 38 37 37 37 37 37 37 39 38 37 37 37 39 43 46 49 51 55 58 62 65 66 67 69 71 72 75 78 82 86 89 92 93 97 99 98 95 93 93 96 100 104 106 105 104 104 105 104 103 103 102 104 107 107 103 101 98 95 91 87 85 84 81 80 80 79 74 70 70 71 69 64
25 25 25 25 27 30 32 34 37 39 40 42 42 42 41 41 40 40 40 40 40 40 39 38 40 42 45 48 51 54 57 61 64 67 70 72 74 76 78 82 85 87 88 89 91 92 96 100 100 97 93 91 92 96 101 104 105 105 105 105 104 104 104 103 103 105 107 106 105 103 98 93 90 88 88 87 84 83 81 76 71 69 70 67 62
25 25 26 28 30 33 35 37 39 41 44 45 45 44 42 42 42 43 43 42 41 40 40 40 43 45 47 50 52 55 59 63 66 68 71 74 76 77 79 82 85 89 91 94 95 96 97 98 99 98 97 96 97 99 100 101 102 103 103 103 102 102 102 102 103 105 106 105 103 100 97 94 92 92 91 89 86 85 84 80 75 71 70 67 62
27 27 28 30 33 35 37 39 40 42 44 47 48 47 44 41 42 45 47 47 46 44 43 44 46 48 51 53 54 56 59 64 67 70 73 76 79 79 80 82 84 86 90 93 96 98 99 99 99 99 100 101 101 102 103 102 102 103 103 103 103 103 104 105 106 108 108 104 98 94 91 90 89 90 88 85 85 85 84 81 77 73 71 68 64
28 29 30 31 34 36 38 40 41 42 43 45 48 51 51 47 44 46 50 51 50 49 49 50 51 53 55 57 59 61 63 66 70 74 76 79 82 82 83 85 86 86 88 93 96 98 98 99 101 101 102 103 103 103 104 104 104 104 105 105 105 105 105 106 105 103 101 97 91 87 84 83 84 84 84 83 84 85 84 81 77 74 72 69 65
30 31 32 33 34 36 38 40 41 43 43 44 46 49 54 56 53 51 52 53 54 55 54 55 56 58 58 60 62 65 67 69 72 76 79 81 83 85 86 88 89 89 91 94 97 98 99 100 101 102 104 106 107 107 107 107 105 104 102 102 102 101 100 100 99 96 93 90 87 84 83 83 84 85 86 85 84 84 83 82 79 76 72 68 65
32 32 34 35 35 36 38 39 41 43 44 45 45 46 50 56 59 59 58 56 55 57 58 58 60 63 64 64 65 67 69 71 73 75 78 81 83 86 88 89 89 91 93 95 96 98 99 99 100 101 103 105 106 107 106 105 103 101 97 96 96 97 97 96 94 92 89 88 87 87 88 89 89 89 88 86 83 81 82 81 78 75 71 68 65
33 34 36 36 36 37 38 40 41 43 43 44 46 46 47 51 56 61 64 63 61 60 60 61 63 67 70 71 71 72 73 74 76 77 79 81 83 85 87 89 88 87 90 93 96 97 98 98 99 100 101 102 103 103 102 101 98 95 94 94 95 97 99 97 94 93 92 91 91 91 92 93 92 89 88 86 84 82 81 78 75 72 69 67 66
35 36 37 38 39 39 40 42 43 45 46 46 47 49 50 50 52 55 60 64 66 68 68 67 66 70 74 76 77 78 79 79 80 81 81 81 83 84 86 88 88 87 86 88 91 94 96 97 97 97 97 98 99 99 99 98 96 94 93 94 95 96 98 97 95 94 94 93 93 93 93 93 91 89 87 86 85 82 78 74 71 70 70 69 69
38 40 40 41 43 44 45 47 48 49 50 52 52 53 55 55 56 57 58 61 64 67 70 71 68 68 71 74 76 78 81 83 85 87 88 87 87 88 89 90 91 91 90 89 90 92 94 95 96 98 99 99 99 99 98 98 98 97 96 95 96 97 98 97 96 95 94 93 93 93 93 92 91 88 85 83 81 78 74 73 73 72 72 73 74
43 44 45 46 48 49 51 52 53 54 56 58 59 60 60 61 63 64 65 67 68 70 72 75 75 73 73 75 76 78 79 81 82 86 89 91 92 92 93 94 96 96 96 95 94 95 94 93 93 96 97 98 99 99 99 98 98 98 97 96 96 97 97 97 95 94 93 93 93 93 93 91 89 85 80 77 75 74 73 75 77 78 78 78 77
48 49 50 51 52 55 56 57 57 58 59 61 62 64 65 65 66 66 68 70 73 74 76 79 82 84 85 85 85 85 85 85 85 85 87 90 92 92 93 94 96 98 98 98 98 99 97 95 93 93 94 94 95 95 95 96 96 95 96 96 96 96 97 96 96 95 94 94 93 91 89 86 83 79 76 75 78 79 79 79 80 81 82 80 77
51 51 52 54 55 57 58 59 60 60 61 62 63 64 65 66 66 67 68 69 71 74 76 77 79 83 86 88 89 90 91 94 96 96 95 95 96 97 97 97 97 98 99 99 99 100 99 97 95 93 91 90 89 89 89 89 90 90 91 93 93 92 91 90 90 88 87 87 88 87 86 85 84 82 81 83 85 85 85 84 83 82 82 79 76
53 53 54 55 56 57 59 59 60 61 62 62 63 64 66 67 68 69 71 72 72 73 76 77 78 79 82 85 88 90 92 93 95 96 98 97 97 99 100 101 102 103 104 105 105 106 106 104 103 102 99 97 96 94 92 92 91 90 90 90 91 91 90 89 90 91 91 93 95 95 95 94 93 92 92 92 91 90 89 89 87 85 84 83 83
55 56 56 56 57 58 59 59 60 61 63 64 66 67 68 70 72 73 74 75 76 76 76 77 79 80 81 82 84 86 88 89 89 91 93 95 96 97 99 101 102 103 103 103 103 104 104 105 106 107 107 107 107 106 104 104 105 104 103 103 104 104 103 102 102 103 104 105 105 105 103 102 101 100 100 98 95 94 94 94 94 93 91 90 91
56 57 58 59 60 60 61 62 63 64 65 67 68 70 71 72 74 75 77 78 79 81 80 80 80 81 82 83 84 84 85 87 88 89 91 92 93 95 96 98 100 101 101 100 100 101 100 100 101 102 102 103 103 103 103 104 104 105 105 106 105 105 104 103 103 103 103 104 104 104 103 102 101 102 102 102 100 98 98 99 101 102 100 98 96
58 59 61 62 63 64 64 65 66 68 70 71 72 74 75 76 77 78 79 80 81 84 86 86 86 86 86 87 87 88 89 89 90 91 92 93 94 95 96 96 97 99 100 101 100 100 101 101 101 100 101 101 101 100 101 101 101 101 101 101 101 101 101 100 101 101 101 101 103 104 104 104 103 102 103 102 101 102 102 102 103 104 103 101 97
60 62 63 65 66 67 68 68 69 71 72 74 75 77 78 79 81 81 82 83 84 85 87 89 90 90 90 91 91 92 93 95 95 95 95 95 96 98 99 99 98 98 99 100 100 100 100 100 100 100 100 100 101 101 101 101 101 101 101 101 100 101 101 100 100 101 100 101 103 107 108 108 108 107 106 104 103 103 104 104 103 102 100 98 96
62 63 65 66 66 67 68 69 72 74 75 77 78 78 80 81 83 84 85 86 87 87 87 88 90 91 91 92 93 94 95 96 97 98 98 98 98 98 100 100 100 99 99 100 100 101 101 100 101 101 101 100 101 101 100 101 101 100 101 101 101 101 101 100 100 101 100 100 103 107 109 108 106 105 104 103 102 102 103 101 99 99 97 95 96
65 66 66 67 68 69 70 71 74 76 79 82 83 82 83 83 84 85 86 87 88 90 90 90 90 91 92 92 93 94 95 96 96 98 99 100 99 99 99 100 100 100 100 101 100 101 101 101 100 101 101 101 101 100 100 100 101 100 100 101 101 101 101 101 100 101 101 100 101 103 105 107 107 104 102 100 98 98 98 97 96 96 97 96 97
67 67 68 69 70 71 73 75 78 79 80 83 85 86 87 87 86 87 88 89 90 92 92 92 93 93 93 94 95 95 96 97 97 98 100 100 100 100 100 100 100 100 100 101 101 101 101 101 101 101 101 101 101 101 100 100 100 100 100 100 100 100 100 101 100 101 101 101 101 100 101 105 107 106 105 104 102 100 100 99 97 97 98 99 99
68 68 69 71 73 75 77 79 81 82 82 82 84 86 88 89 89 89 89 90 92 94 95 96 97 97 96 97 97 97 97 96 95 96 98 99 100 101 101 101 101 101 100 101 101 100 100 101 100 101 101 100 100 101 101 100 100 100 100 100 100 100 100 100 100 101 100 100 101 101 100 101 103 103 103 103 104 104 103 102 101 101 102 103 103
70 71 73 74 76 79 81 82 83 84 85 85 85 86 88 89 88 86 85 85 87 89 91 93 95 96 97 98 98 99 100 99 98 98 99 99 99 101 101 101 101 101 101 101 101 100 100 101 100 100 101 100 100 100 100 100 101 101 100 100 100 100 100 100 100 100 101 100 100 101 101 101 101 100 101 102 103 103 102 101 102 103 104 103 103
74 76 78 79 81 82 83 84 85 86 87 88 89 89 89 88 85 81 78 76 76 77 79 81 83 85 88 91 93 96 98 100 103 104 105 104 104 104 102 101 100 101 101 101 100 100 100 100 100 101 101 100 100 100 101 101 101 101 100 101 101 101 101 101 101 100 100 101 100 100 100 101 100 100 101 102 101 101 101 100 101 102 102 100 100
76 77 79 81 83 84 86 88 89 90 91 92 92 91 89 86 80 74 71 69 68 68 69 70 71 73 75 78 82 86 90 94 98 102 104 107 109 108 105 104 103 102 102 101 101 101 101 100 100 101 101 100 100 101 101 101 102 101 101 100 101 101 100 100 101 101 100 100 101 100 100 100 101 100 100 101 100 100 101 101 100 101 101 100 100
80 81 82 83 85 87 89 91 94 95 95 94 93 91 87 81 73 67 63 63 62 63 65 67 69 71 73 75 78 82 85 89 93 95 98 102 104 105 106 106 106 106 105 104 103 102 101 100 100 100 100 100 100 100 100 101 101 101 101 100 100 101 101 100 100 101 101 100 101 101 100 100 101 100 100 101 101 100 101 101 100 100 101 101 100
Wind_Speed
31 33 34 35 35 36 36 37 38 38 40 41 42 44 46 47 49 51 52 54 55 56 57 58 59 60 61 62 63 63 64 64 64 64 64 65 65 65 66 66 66 67 67 67 67 68 68 69 69 69 69 69 69 69 68 68 67 67 67 67 68 68 69 71 73 73 71 71 73 73 74 75 74 74 75 75 75 75 76 76 76 76 76 76 75
33 34 35 36 36 37 38 39 41 42 44 45 47 48 50 52 53 54 56 57 58 58 59 60 61 62 63 63 64 65 65 65 66 66 66 66 66 66 67 67 68 69 69 69 70 70 70 70 71 71 71 72 72 72 72 72 72 72 71 71 71 71 71 71 73 75 75 75 75 75 76 76 76 76 76 76 76 76 77 77 77 77 77 76 76
33 34 36 37 38 40 42 43 45 47 49 50 52 53 54 55 56 56 56 57 57 57 58 59 60 60 61 62 63 63 64 65 65 66 67 67 67 67 67 67 68 69 69 70 71 72 72 72 73 73 73 73 73 73 74 74 74 75 74 75 75 74 74 74 74 76 78 79 78 77 78 78 78 78 79 79 79 78 79 78 78 78 77 77 76
35 37 38 40 42 44 46 48 50 51 53 54 55 56 56 57 57 57 57 56 56 56 57 57 58 59 60 61 61 62 63 64 65 66 67 68 68 68 68 68 68 69 69 70 71 72 73 74 74 75 75 75 75 75 75 76 76 76 76 76 76 76 76 77 77 77 79 80 80 80 81 81 81 81 82 82 82 82 81 80 80 79 77 76 75
39 41 43 45 47 49 51 52 54 55 56 56 57 57 58 58 58 58 58 58 58 58 58 58 59 59 60 60 61 62 63 64 65 66 66 67 68 69 69 70 70 70 70 70 71 71 72 73 74 75 76 77 78 78 78 78 77 77 77 77 77 78 78 78 79 79 80 81 82 81 82 82 83 82 82 83 83 84 84 83 82 80 79 77 75
44 47 48 50 52 54 55 56 57 57 58 58 58 58 59 59 59 60 60 60 61 61 61 61 61 61 61 61 62 62 63 63 64 65 66 67 67 68 69 70 70 70 70 70 70 71 71 72 72 73 75 76 78 79 79 79 79 78 78 78 78 78 79 79 79 80 80 82 83 83 83 83 82 82 81 80 81 81 82 82 82 81 81 79 77
50 52 54 55 56 57 58 58 59 59 59 59 60 60 60 60 61 61 61 62 62 62 62 63 63 63 62 62 62 62 62 62 62 62 63 64 65 67 68 68 69 69 70 70 70 70 71 71 71 71 72 73 74 75 76 77 78 78 78 79 79 79 79 79 79 79 80 81 81 82 82 82 81 81 80 80 80 80 80 80 80 80 80 80 80
55 56 57 58 58 59 59 59 59 59 60 60 60 61 61 61 62 62 62 62 62 62 62 62 62 61 61 61 60 60 60 60 59 59 59 59 61 62 64 65 65 66 67 68 68 69 69 70 70 70 70 69 69 70 70 71 72 73 74 75 76 76 77 77 77 77 78 79 80 81 81 81 81 80 80 80 80 79 79 80 80 79 79 79 79
58 59 59 59 59 59 59 59 59 59 60 60 60 60 60 60 61 60 60 60 60 60 60 60 60 59 59 58 58 58 58 58 57 57 56 57 58 59 60 61 62 63 64 65 65 66 67 67 67 67 66 66 66 66 66 66 67 68 68 69 70 71 71 72 72 73 73 75 76 78 79 80 80 79 79 79 78 78 79 79 79 79 79 79 79
59 59 59 59 59 59 60 60 60 60 60 59 59 59 59 58 58 58 57 57 57 57 57 57 57 57 57 57 57 57 56 56 56 56 56 57 57 58 59 60 61 61 62 63 64 64 64 64 64 64 63 63 63 63 63 63 63 63 63 64 64 65 66 66 66 67 68 69 71 72 73 75 76 75 75 75 74 75 76 76 76 77 78 79 79
58 58 59 59 59 60 60 59 59 59 58 58 57 57 56 56 56 56 56 55 56 56 56 56 57 57 57 58 57 57 57 57 56 56 56 56 57 58 59 60 61 61 62 63 63 64 63 63 63 63 62 62 61 61 61 61 60 60 59 59 59 60 60 60 60 60 61 63 65 66 67 69 69 69 69 69 68 69 70 72 73 74 75 76 77
58 58 59 59 59 59 59 58 57 56 55 55 55 54 54 54 55 55 55 55 56 56 57 57 57 58 58 59 59 59 59 58 58 57 57 56 56 57 59 61 61 62 63 63 63 63 63 63 63 63 62 62 62 61 61 60 59 58 56 55 54 54 54 55 56 56 56 57 59 61 62 63 63 62 62 62 62 63 65 66 68 69 71 72 74
57 57 58 58 58 57 56 55 54 53 53 53 53 53 54 54 55 55 56 56 57 58 58 59 59 60 60 60 60 61 60 60 60 59 58 58 56 57 59 61 62 63 63 63 63 63 63 64 63 63 62 62 61 61 61 60 59 57 56 54 52 51 50 51 52 53 54 55 56 57 57 57 58 58 57 57 58 59 60 62 64 66 67 68 69
56 56 55 55 54 53 52 52 51 51 52 52 53 53 54 55 55 56 57 58 59 59 60 60 61 61 61 61 61 61 61 60 60 59 58 58 56 56 58 61 62 62 63 62 63 63 63 63 63 62 61 60 60 60 60 60 59 57 56 54 52 51 50 49 49 50 52 53 54 55 53 52 54 54 54 53 55 57 59 60 62 63 64 64 64
53 52 51 51 50 50 50 50 50 51 52 52 53 54 55 56 57 57 58 59 59 60 60 61 61 61 61 61 60 60 59 59 58 57 57 55 54 55 58 59 59 60 60 60 61 61 61 61 61 60 59 59 59 58 58 58 58 57 56 54 53 51 50 49 48 48 49 50 52 53 52 51 52 53 53 53 55 57 58 59 58 59 59 59 60
49 48 48 48 48 48 49 50 51 52 52 53 54 55 56 57 57 58 59 59 59 59 59 60 60 59 59 59 59 58 57 56 56 55 54 52 52 54 56 56 57 57 57 57 57 58 58 59 59 59 58 58 57 56 56 56 56 56 55 55 54 53 51 49 48 47 48 49 50 51 51 51 51 52 53 54 56 56 55 54 54 55 56 57 57
46 46 46 47 47 48 49 51 52 53 54 55 56 56 57 57 58 58 58 58 58 58 58 58 57 57 57 57 57 57 56 55 54 53 51 50 51 54 55 54 55 55 54 54 54 55 55 55 56 56 56 55 54 54 53 52 53 54 54 54 54 53 52 50 48 47 47 48 48 49 49 49 49 50 51 53 54 53 52 52 52 53 54 55 55
45 45 46 47 48 49 50 51 52 53 54 55 56 56 57 57 57 57 57 57 57 56 56 56 55 55 55 55 55 55 54 54 53 52 50 50 51 53 54 55 55 54 54 53 52 53 53 52 52 53 53 52 51 50 49 48 49 49 50 52 52 52 52 51 50 49 48 46 46 47 47 47 47 48 49 50 51 51 51 52 51 52 53 53 54
44 45 46 48 49 50 51 52 53 54 54 55 55 55 55 55 55 55 55 55 55 54 54 54 53 53 53 53 53 53 52 52 52 52 51 50 51 53 54 55 55 55 54 54 53 52 52 51 49 49 49 49 48 46 44 43 43 45 46 48 49 49 50 50 49 50 48 47 46 45 45 46 46 46 47 48 49 50 50 50 51 51 52 53 53
45 46 47 48 49 50 51 52 53 53 53 54 53 53 53 53 53 53 52 52 52 51 51 51 51 51 51 51 51 51 51 51 50 50 50 49 49 52 54 54 54 54 54 54 54 53 52 50 47 45 46 46 45 44 39 35 36 39 42 44 46 46 47 47 47 47 47 46 46 45 45 44 44 45 46 46 47 48 48 49 50 51 52 52 52
44 45 46 47 48 50 51 51 52 52 51 51 51 51 51 51 51 50 50 50 49 49 48 48 48 49 49 49 50 50 50 50 50 50 49 48 48 49 51 52 52 53 54 54 54 53 51 49 45 43 42 43 43 41 35 31 32 35 35 39 44 45 44 44 44 44 43 43 44 43 44 44 43 43 44 45 46 46 47 47 49 49 50 51 51
44 45 46 47 48 49 49 49 49 49 49 49 49 48 48 48 48 48 48 47 47 47 47 47 47 47 47 48 49 49 49 49 49 49 48 47 45 46 47 49 49 50 52 53 52 51 49 47 44 41 39 40 39 36 32 33 36 35 33 36 41 43 42 42 41 41 40 40 40 41 41 42 42 42 42 43 44 44 45 46 47 47 48 48 49
43 44 45 46 46 46 47 47 47 46 47 46 46 46 45 45 45 45 45 45 45 45 45 45 45 46 47 47 47 47 47 46 46 45 45 45 43 42 43 45 46 48 49 50 50 49 47 44 42 40 38 37 35 33 33 38 40 37 36 37 39 40 40 40 39 39 39 38 38 39 39 39 40 40 41 41 41 42 43 44 45 45 45 45 46
43 43 44 44 44 44 44 44 44 44 44 44 43 43 43 43 43 43 43 43 43 43 43 43 44 45 46 45 44 43 42 42 42 42 42 42 41 40 40 41 42 44 46 47 46 45 43 41 40 38 36 35 33 33 36 40 40 39 38 38 38 38 39 39 39 39 38 38 38 38 38 38 38 39 40 39 39 40 41 42 42 42 43 43 44
41 42 42 42 42 42 41 41 41 41 41 41 41 41 41 41 41 41 41 41 41 41 41 42 43 44 43 42 41 39 39 38 38 38 38 38 37 37 37 37 38 39 41 42 42 41 40 39 38 37 35 34 34 35 37 39 39 40 39 38 37 38 38 39 39 39 38 39 39 39 38 37 38 38 38 38 38 38 38 39 39 40 41 42 42
40 40 40 40 40 40 39 39 39 39 39 39 40 40 40 41 40 40 40 40 39 39 39 40 41 41 40 39 38 37 36 35 34 33 33 33 33 33 33 33 34 35 36 37 38 37 37 36 36 35 34 33 34 35 36 37 39 39 39 38 37 38 38 39 39 39 39 39 39 39 39 38 37 38 38 38 37 37 37 37 37 38 39 40 40
38 38 38 38 38 38 38 37 37 37 37 37 38 38 39 39 39 39 39 38 38 37 38 39 39 39 38 36 35 34 33 32 31 31 30 29 29 29 29 29 30 32 33 34 34 34 33 33 33 33 32 32 33 34 35 36 37 38 37 37 37 37 37 38 38 38 38 39 40 40 39 38 37 37 37 37 36 35 36 37 37 37 37 38 39
36 36 36 37 36 36 36 35 35 35 35 36 36 37 37 37 37 37 38 38 37 37 37 37 38 38 37 35 34 33 31 31 30 29 28 27 26 26 25 26 26 28 29 30 30 29 29 30 30 30 30 31 33 34 34 34 35 35 36 36 35 35 35 36 36 37 38 39 40 39 38 37 36 36 36 35 34 34 35 36 36 36 36 36 37
34 34 34 34 34 33 33 34 34 34 33 33 33 35 36 36 36 36 36 37 37 37 37 37 37 37 36 35 34 33 31 30 29 28 27 27 26 25 24 24 24 25 25 25 25 25 25 27 27 28 29 29 31 32 32 32 32 33 33 33 33 33 33 34 35 36 37 38 39 38 36 35 35 34 34 33 32 32 33 33 34 35 35 35 35
32 32 32 32 31 31 31 31 31 32 31 31 30 31 33 35 36 35 35 35 36 35 35 35 35 35 34 34 34 33 32 30 28 27 26 25 25 24 24 23 24 23 23 22 22 22 23 24 25 26 26 27 28 29 29 29 29 29 30 31 31 31 31 32 34 35 36 37 37 36 35 33 31 31 31 31 30 30 30 31 32 33 33 33 33
30 30 30 30 30 29 29 29 29 29 30 30 29 28 28 30 33 35 35 35 34 34 34 33 33 33 33 32 32 31 31 30 28 27 25 24 23 22 22 22 22 22 21 20 20 20 21 21 22 23 24 24 25 26 26 27 27 27 28 28 29 30 31 31 33 34 34 34 34 33 32 30 29 28 28 28 28 27 27 28 29 30 31 31 31
28 28 28 28 28 28 28 28 28 28 28 29 29 28 27 26 27 30 33 34 34 33 32 32 31 31 31 31 31 30 29 29 28 27 26 24 23 22 21 22 22 21 20 19 19 19 19 20 20 21 21 22 23 24 24 25 26 26 27 27 27 28 29 31 31 32 32 32 31 30 29 28 27 26 26 26 26 25 25 25 27 28 29 29 29
27 27 27 27 27 27 27 27 27 27 28 27 28 28 28 26 25 24 27 30 33 34 34 33 32 31 30 30 29 29 28 28 27 26 26 24 23 22 21 21 22 21 19 18 18 18 18 19 19 19 20 20 21 22 23 24 24 25 25 25 24 25 26 28 29 29 30 30 29 27 27 26 26 25 24 24 24 24 23 24 25 26 27 26 27
26 26 26 26 26 26 26 27 27 27 27 28 28 28 28 28 27 26 25 25 27 29 31 32 32 31 29 29 28 27 27 26 25 25 25 24 23 22 21 21 22 22 20 19 17 17 17 18 18 19 19 19 19 20 20 20 21 22 22 22 22 22 23 24 26 26 26 26 25 24 24 24 23 23 23 23 23 23 23 23 24 24 25 25 25
25 25 26 26 26 26 26 26 27 27 27 28 28 28 28 28 28 28 28 27 27 27 28 30 31 31 30 29 28 27 27 26 25 24 24 23 23 22 22 21 21 21 22 21 19 18 17 16 16 17 17 17 17 17 17 17 18 18 18 19 19 19 20 21 22 22 22 21 21 21 21 21 21 22 22 21 21 22 22 23 23 23 24 24 24
24 25 25 26 26 26 26 26 26 27 27 27 28 28 28 28 28 28 29 29 29 29 28 29 30 31 31 30 30 29 28 27 26 25 24 23 23 22 21 20 20 20 20 21 20 19 19 18 17 16 16 16 16 16 16 16 16 16 16 16 16 16 17 17 18 19 18 18 18 19 19 19 20 21 21 21 21 21 21 22 22 23 23 24 23
24 24 25 25 26 26 26 26 26 26 27 27 27 27 28 28 28 28 28 28 28 28 28 27 27 28 29 29 29 29 29 29 29 28 26 25 24 24 23 22 20 20 20 19 19 19 19 19 18 17 16 15 15 15 14 14 14 14 15 15 15 14 15 15 16 17 17 17 18 18 19 19 20 21 21 20 20 21 21 21 21 21 22 23 22
23 24 24 24 24 24 25 25 25 25 26 26 26 26 27 27 27 28 28 28 27 27 27 27 26 26 26 26 27 28 28 28 27 27 27 26 25 24 24 23 22 21 20 19 19 18 18 18 18 17 17 16 15 15 14 14 14 14 14 14 14 15 15 15 15 16 16 16 17 18 19 19 20 21 21 21 21 21 21 21 22 21 20 21 21
22 23 23 23 23 23 23 23 24 24 24 25 25 26 26 26 27 27 27 28 28 27 27 27 27 26 26 25 25 25 25 25 24 24 25 25 25 24 23 23 23 22 21 20 19 18 18 17 17 17 17 16 15 15 14 14 14 14 14 13 14 14 15 15 15 15 16 16 17 18 18 19 20 20 21 21 21 21 21 21 21 20 19 19 19
21 21 21 22 22 22 22 23 23 23 24 24 25 25 26 26 27 27 27 28 28 28 28 27 27 27 27 26 26 25 25 25 25 24 24 24 24 24 24 23 23 22 22 22 21 20 19 18 17 17 17 16 16 15 14 14 13 13 14 13 13 14 15 15 15 15 15 16 16 17 18 18 19 19 20 20 20 20 19 19 20 20 19 18 18
20 20 20 21 21 21 22 22 23 23 24 24 25 25 26 26 26 27 27 27 27 28 28 29 28 28 28 28 27 27 27 26 26 26 26 25 25 25 24 23 23 23 22 22 22 21 21 20 19 18 18 18 17 17 16 15 14 14 14 14 14 13 14 14 14 14 14 14 15 16 16 17 17 17 17 18 18 18 17 17 17 17 17 17 16
19 19 20 20 21 21 22 22 23 23 24 24 25 25 26 26 26 26 27 27 27 27 27 28 28 28 28 28 28 27 27 27 27 26 26 26 25 25 25 24 24 23 22 22 22 21 21 21 20 19 19 18 18 18 17 17 16 16 16 15 15 14 14 14 14 14 13 13 14 14 14 14 15 14 14 15 15 14 14 14 14 14 14 14 13
18 19 19 20 20 21 22 22 23 23 24 24 25 25 25 26 26 26 27 27 27 27 26 26 26 27 27 27 27 27 27 27 26 26 25 25 25 24 24 24 24 23 23 22 22 21 21 21 20 20 19 18 18 17 17 17 17 17 16 16 16 16 15 14 14 14 14 13 13 14 13 13 13 12 12 12 11 11 11 11 10 10 10 9 9
19 19 20 20 21 21 22 22 23 24 24 25 25 25 26 26 26 26 26 26 26 26 26 26 25 25 26 26 26 26 26 25 25 25 25 24 24 24 23 23 23 23 23 22 22 21 21 21 20 20 20 19 18 18 17 17 16 16 16 16 16 16 16 15 15 14 14 14 14 14 13 13 12 12 11 10 9 8 8 7 7 6 7 6 7
19 20 20 21 21 21 22 22 23 23 24 25 25 26 26 26 26 25 25 25 25 26 26 26 25 25 25 25 25 25 25 25 24 24 24 24 23 23 23 23 22 22 22 22 22 21 21 21 21 20 20 20 19 19 18 18 17 17 16 16 16 16 16 16 15 15 14 14 13 13 13 13 12 11 11 10 9 8 7 7 6 6 6 7 8
19 20 20 20 21 21 22 22 23 24 24 24 24 25 25 25 25 25 25 25 25 25 25 25 25 25 25 25 25 25 24 24 24 24 23 23 23 23 23 23 23 22 22 22 21 21 21 21 20 20 20 20 20 20 19 19 19 18 17 17 16 16 16 16 16 15 15 14 13 13 13 13 12 11 10 10 9 9 8 8 8 7 7 8 8
19 20 20 20 21 21 22 23 23 24 25 25 24 24 24 24 25 25 24 24 24 24 24 25 24 24 25 24 24 24 24 24 24 24 23 23 23 23 23 23 22 22 22 22 22 21 21 20 20 20 20 19 19 20 20 20 19 19 19 18 17 16 16 16 15 15 15 14 14 13 13 12 12 11 11 10 10 9 9 9 9 9 9 9 9
20 20 20 21 21 21 22 23 23 24 25 25 25 24 24 24 24 24 24 24 24 23 23 23 23 24 24 24 24 24 24 24 24 24 24 24 23 23 23 22 22 22 22 22 22 22 21 21 21 20 20 20 20 20 20 20 20 20 20 19 18 18 17 16 15 14 14 14 13 13 13 12 12 11 11 11 10 10 10 10 10 10 10 10 10
20 20 20 21 21 22 22 23 23 23 24 24 24 24 24 24 24 24 24 24 23 23 23 22 23 23 23 23 23 23 23 24 24 24 23 23 23 23 23 22 22 22 22 21 21 21 21 21 21 21 20 20 20 20 20 20 19 19 20 20 19 19 18 17 16 15 14 14 13 13 12 12 12 11 11 11 11 10 10 10 10 10 11 11 11
20 20 20 21 21 22 22 23 23 23 23 23 23 24 24 24 23 23 23 23 23 22 22 22 22 22 22 22 22 23 23 23 23 23 23 23 22 22 22 22 22 22 22 21 21 21 20 20 20 20 20 20 20 20 20 20 20 20 20 19 18 17 17 16 16 16 15 14 14 13 12 12 11 11 11 11 11 11 11 11 11 11 11 11 11
20 20 21 21 21 22 22 23 23 23 23 23 23 23 23 23 23 23 22 22 21 21 21 21 22 22 22 22 22 22 23 23 23 23 22 22 22 22 22 21 21 21 21 21 20 20 19 19 19 20 20 21 21 21 21 21 21 21 21 20 19 18 17 17 16 16 15 14 14 13 13 12 12 12 12 12 11 11 11 11 11 11 11 11 11
Wind_Direction
284 284 283 283 282 282 282 282 283 283 283 283 284 284 285 285 285 286 286 286 286 285 285 284 284 283 282 282 281 280 280 279 278 277 276 275 275 274 273 273 272 272 271 271 270 270 270 270 270 270 270 270 270 270 270 269 268 267 266 265 265 264 264 264 265 265 263 264 265 265 266 268 268 268 270 271 271 272 273 273 273 273 272 271 269
283 282 281 280 280 280 281 281 282 283 283 283 283 284 284 285 285 285 285 285 285 284 284 283 282 282 281 281 280 280 279 279 278 277 277 276 275 274 273 272 272 272 271 271 270 270 269 269 268 268 268 268 268 268 268 268 268 268 268 268 267 267 266 266 266 267 267 266 267 267 268 269 269 268 270 271 271 272 273 274 275 275 276 276 275
279 279 278 279 279 281 281 283 284 284 285 285 286 286 286 286 286 286 285 285 284 284 283 282 281 281 280 279 279 278 278 278 278 277 277 276 275 274 273 272 271 271 270 270 269 269 269 268 268 268 268 267 267 266 266 266 265 265 265 265 266 266 266 266 266 267 269 268 268 269 269 270 270 270 270 271 271 272 272 273 274 274 275 275 275
282 283 284 285 285 286 287 288 288 289 289 290 290 290 289 289 288 287 287 286 285 284 283 282 281 281 280 280 279 279 278 278 278 277 277 276 276 275 274 273 272 271 270 269 268 268 268 267 267 267 267 267 266 266 265 265 264 264 263 263 263 263 263 263 264 264 265 266 267 268 268 268 269 269 270 271 272 272 273 273 273 273 273 273 273
291 291 291 292 292 293 293 293 294 294 294 294 293 293 292 291 290 290 289 288 287 287 286 285 284 283 282 281 280 280 279 279 278 278 277 277 276 276 275 274 273 272 271 270 269 268 268 267 266 265 265 265 265 265 265 265 264 264 264 263 262 262 262 262 262 262 263 263 264 264 265 266 266 267 267 268 269 270 271 271 272 272 272 272 271
297 297 297 297 297 298 298 298 298 298 297 296 295 295 294 293 293 292 291 291 290 289 289 288 287 286 285 283 282 281 280 279 278 278 277 277 276 276 275 275 274 273 273 272 271 270 269 268 267 266 265 265 265 265 265 265 265 265 264 264 263 263 263 262 262 263 263 263 263 262 262 263 264 265 265 266 266 267 267 268 268 269 269 270 270
300 300 300 300 301 301 301 301 300 299 298 297 296 296 295 294 294 293 293 292 292 291 290 290 289 288 287 286 285 284 282 281 280 279 278 278 277 277 276 275 275 275 274 274 273 272 271 270 270 268 267 267 266 266 265 265 265 265 265 266 265 265 265 264 264 264 264 263 263 263 263 263 264 265 266 265 265 266 266 266 266 266 267 267 267
301 301 301 302 302 302 301 300 299 298 298 297 297 296 296 295 295 295 294 294 293 292 291 291 290 289 288 288 287 286 285 284 283 282 281 280 279 278 278 277 277 276 276 275 275 274 274 273 272 272 271 271 270 269 268 267 267 266 266 266 266 266 266 266 266 266 266 266 266 265 265 264 265 266 267 267 266 266 267 267 267 266 266 266 266
302 302 302 302 302 301 300 299 298 298 297 297 297 297 296 296 296 295 295 294 293 293 292 292 291 291 290 289 289 288 287 286 286 285 283 282 280 279 278 278 277 276 276 276 275 275 275 275 275 275 275 274 274 273 272 271 269 268 267 267 267 267 267 267 268 268 268 268 268 267 267 266 266 267 268 268 268 268 267 268 268 267 267 267 267
302 302 302 301 300 300 299 299 299 299 298 298 298 298 297 297 296 295 295 295 294 294 293 293 293 292 291 291 290 289 288 288 287 286 285 284 282 281 279 278 277 276 276 276 275 275 275 275 275 276 276 275 275 274 274 273 272 272 271 270 269 269 268 268 268 269 270 269 269 269 268 268 267 268 268 268 269 269 268 268 268 268 268 268 267
302 301 300 300 300 300 300 300 300 300 300 300 299 299 298 298 297 297 296 296 295 295 294 294 293 293 292 291 290 290 289 288 287 286 285 284 283 282 281 279 278 278 277 276 276 276 276 276 275 275 275 275 275 275 274 274 274 274 274 274 274 274 273 271 270 269 270 270 270 269 269 268 268 268 269 269 269 270 269 268 268 268 268 268 267
300 300 300 300 300 301 301 301 301 301 301 301 300 300 300 299 299 298 298 297 297 296 295 295 294 293 292 292 291 290 290 289 288 287 285 284 283 282 281 280 279 279 278 277 277 277 276 275 275 274 274 275 275 275 275 275 275 274 274 274 274 275 275 275 274 272 271 270 270 269 269 269 269 269 269 270 270 270 269 268 268 268 268 268 268
300 301 301 301 302 302 302 302 302 302 302 302 302 301 301 301 300 300 299 298 298 297 296 296 295 294 293 292 292 291 290 289 288 287 286 285 284 282 281 280 280 279 279 279 278 277 276 275 275 274 275 275 275 275 275 275 275 275 275 274 274 273 273 273 274 274 274 272 271 270 270 270 270 269 269 270 270 270 269 269 268 269 269 270 270
301 302 302 302 302 303 303 304 304 304 304 303 303 303 302 302 301 301 300 299 298 297 297 296 295 294 293 293 292 291 290 289 288 287 286 285 284 282 280 279 279 279 279 279 278 278 277 277 276 276 275 275 275 275 275 275 275 275 275 275 274 273 272 271 271 272 273 273 273 272 272 272 272 271 269 269 269 268 268 269 269 270 271 272 272
303 303 304 304 305 305 305 305 305 305 305 305 304 304 303 302 302 301 300 299 299 298 297 296 295 295 294 293 293 292 291 290 289 288 287 286 285 281 280 279 279 278 278 278 278 277 277 277 277 276 275 275 274 274 274 274 274 274 274 274 273 272 272 272 271 271 270 271 271 273 273 273 272 271 270 269 268 269 270 272 273 273 273 273 273
305 306 306 306 307 307 306 306 306 306 306 305 304 304 303 303 302 301 301 300 299 299 298 298 297 296 296 295 294 293 292 291 291 290 289 288 286 283 281 281 280 279 278 277 277 277 277 276 276 275 275 274 274 274 274 274 274 273 272 271 271 271 270 271 271 271 270 270 269 270 271 271 271 272 273 272 272 273 275 275 275 275 274 274 274
307 308 308 308 308 308 308 308 307 306 306 305 305 304 304 303 303 302 302 301 300 300 299 299 298 297 297 296 295 294 293 293 292 291 290 289 286 284 283 282 281 280 279 278 277 276 276 275 275 275 275 274 274 274 274 275 274 273 272 271 270 269 269 268 269 269 269 270 270 269 269 270 270 272 272 273 274 275 275 275 275 275 276 277 277
309 310 310 310 310 309 309 308 307 307 307 306 306 305 305 305 304 304 303 303 302 302 301 300 300 299 298 297 296 296 295 294 293 292 291 290 287 286 285 283 282 282 280 279 278 277 276 275 275 275 275 275 274 275 275 276 275 274 273 272 270 269 268 267 266 266 266 267 268 269 270 270 270 269 270 271 272 274 274 275 276 276 277 278 279
311 311 311 310 310 310 309 309 308 308 308 307 307 307 307 306 306 305 305 304 304 303 303 302 302 301 300 299 298 297 296 295 294 293 292 291 289 287 286 285 284 283 282 280 278 277 276 275 275 275 275 275 275 275 275 278 278 277 275 273 271 270 269 267 266 265 265 266 266 267 268 268 268 268 269 270 271 272 274 275 276 277 277 278 278
312 312 311 311 311 310 310 310 310 309 309 309 309 309 308 308 308 307 306 306 306 305 304 304 303 303 302 301 300 299 298 297 296 294 293 291 289 287 286 285 284 283 282 280 278 277 276 276 275 275 275 275 275 274 276 279 280 277 275 273 271 270 269 269 268 267 267 267 266 266 266 266 266 266 267 268 269 270 272 274 275 276 277 277 278
312 312 312 312 312 311 311 311 311 311 311 311 311 311 310 310 310 309 308 308 308 307 307 306 305 305 304 304 303 302 301 299 297 296 293 291 289 287 286 285 283 282 280 278 278 277 277 276 275 274 274 274 274 274 274 274 272 271 271 272 272 271 271 270 270 270 270 269 269 268 268 267 267 266 267 267 268 269 271 272 274 275 276 277 278
313 313 313 313 313 313 313 313 313 313 313 313 313 313 312 312 312 311 311 310 310 310 309 309 309 308 308 307 306 305 304 302 300 298 295 292 289 287 285 284 282 280 279 278 278 278 277 277 275 274 272 272 272 273 272 267 264 264 264 267 271 273 273 272 272 272 272 271 270 269 269 269 269 268 268 268 269 270 271 272 273 274 276 277 278
315 315 315 315 315 315 315 315 315 315 315 315 315 315 315 314 314 314 313 313 313 313 312 312 312 312 311 310 309 308 306 304 302 299 296 293 290 287 284 283 282 280 280 279 279 278 278 277 276 273 271 269 269 269 267 264 263 263 262 264 268 272 273 274 274 273 272 272 271 270 269 269 269 269 268 269 269 270 270 271 272 274 275 276 276
317 316 317 316 316 316 316 316 316 316 317 317 317 317 317 317 317 317 316 316 316 315 316 316 316 316 315 314 313 311 309 307 304 301 298 296 293 289 286 283 282 281 281 281 280 280 280 278 276 273 270 268 265 263 263 264 265 266 265 266 268 270 272 273 274 274 274 274 273 272 271 271 270 270 270 270 269 269 270 271 272 273 274 274 274
318 318 318 317 317 317 317 318 318 318 319 319 319 319 319 319 320 319 319 318 318 319 319 320 321 320 319 318 317 316 314 311 308 305 302 299 297 293 290 287 284 282 281 281 281 281 280 278 276 274 271 267 263 260 261 264 265 266 267 267 268 270 271 272 274 275 275 275 275 275 274 274 273 273 273 273 272 272 272 272 272 272 273 273 273
319 319 319 319 319 319 320 320 320 320 321 321 322 322 322 322 322 322 321 321 322 322 324 325 326 325 324 323 322 320 319 316 313 310 307 304 301 298 295 292 288 285 283 282 281 280 280 278 277 275 273 269 265 262 261 262 264 266 267 268 269 270 272 273 274 275 275 275 275 275 275 275 274 275 275 275 275 276 276 274 273 272 273 273 274
321 321 322 322 322 322 322 322 322 322 323 324 324 324 323 324 324 324 324 324 325 326 328 330 331 331 330 328 327 326 325 323 319 317 314 310 306 303 299 295 291 288 286 285 284 283 281 279 277 276 274 271 268 266 264 264 265 267 269 270 271 272 272 273 273 274 274 274 274 274 274 275 275 276 277 277 278 278 277 275 274 274 274 275 275
324 324 325 325 325 325 325 325 325 325 326 326 326 325 325 325 326 327 327 327 329 331 333 335 336 336 336 334 332 331 332 329 327 325 322 318 314 310 305 300 295 292 289 288 287 285 283 280 277 275 273 271 270 269 268 268 269 270 271 273 273 274 274 274 275 275 275 274 274 274 275 275 276 277 277 277 277 277 276 276 276 276 276 276 276
327 328 328 329 329 329 329 328 328 328 329 329 329 329 328 328 329 330 331 331 333 335 337 338 340 341 341 339 337 337 338 337 334 333 331 328 324 320 315 310 303 298 295 292 290 287 283 280 278 276 274 273 272 273 274 275 275 276 276 276 276 276 276 276 275 274 274 274 275 276 277 277 277 277 277 277 276 275 275 275 276 276 276 276 276
330 331 332 333 334 334 333 333 333 332 333 333 334 334 333 332 332 334 334 335 337 339 340 341 342 343 344 344 343 343 343 343 341 339 336 333 330 326 322 317 311 307 304 300 295 291 286 283 281 280 279 279 279 279 280 280 279 278 278 278 278 276 275 274 273 272 272 274 276 278 278 278 277 276 276 275 275 275 275 275 275 275 275 275 276
335 336 337 338 339 339 338 338 339 339 339 339 340 341 340 337 336 336 337 337 339 342 343 344 346 346 345 346 347 347 347 346 346 344 341 338 335 331 326 321 317 316 313 309 302 297 293 289 286 284 283 282 281 280 280 279 277 276 275 274 274 274 273 272 272 273 275 277 279 280 281 280 279 277 276 276 275 274 274 274 275 275 276 276 277
339 341 342 343 343 344 345 345 346 346 346 346 346 347 348 347 344 340 339 339 341 344 345 347 350 350 349 349 349 350 349 349 348 348 346 345 341 338 333 327 324 323 321 316 311 306 300 296 292 289 287 284 282 280 279 278 277 276 275 274 274 274 275 275 275 277 279 280 281 282 283 283 282 280 279 277 276 275 275 275 276 276 277 278 279
343 345 346 347 348 349 350 351 351 352 352 353 354 354 355 356 355 352 347 344 344 346 348 349 352 354 353 352 353 353 352 352 351 350 349 348 347 344 340 335 332 331 329 325 319 314 310 306 302 298 295 292 289 287 286 285 284 283 282 282 281 278 277 277 278 279 280 281 283 284 284 283 283 281 280 279 279 278 278 277 277 277 278 278 279
346 347 348 350 352 353 354 355 355 356 356 357 359 360 360 360 1 2 0 356 353 352 351 352 354 357 357 355 355 356 356 355 355 354 352 351 351 349 346 343 339 338 338 337 332 326 320 316 313 310 307 304 301 297 295 292 291 289 288 287 285 283 280 279 279 280 281 282 283 284 283 283 282 281 280 279 280 280 280 279 278 278 279 279 280
347 348 349 351 353 354 356 356 356 357 359 359 0 1 2 3 3 4 5 5 5 3 0 358 358 1 3 2 1 1 1 0 0 359 356 355 355 353 351 349 346 343 343 343 343 339 333 327 324 320 317 314 311 307 304 300 297 294 292 290 288 286 284 283 283 283 284 284 284 284 284 284 283 282 280 280 281 281 281 280 280 280 281 281 281
349 349 350 351 353 355 355 356 357 358 359 360 0 1 2 3 4 5 5 6 6 7 7 5 3 3 5 7 6 7 7 6 7 7 5 2 0 359 358 356 352 350 347 346 346 344 340 338 337 333 328 324 320 316 313 309 305 302 299 296 294 292 290 289 289 289 290 290 289 288 287 286 284 283 283 284 284 283 282 281 281 282 283 283 284
349 350 351 352 354 355 355 356 358 359 360 1 2 3 3 4 4 5 6 7 7 7 7 8 7 5 5 5 6 7 8 8 9 10 11 10 8 6 6 5 2 360 357 354 352 350 345 344 344 342 339 335 331 326 322 319 314 312 309 308 306 303 300 298 297 296 296 296 295 293 292 291 289 288 288 289 288 287 286 285 284 284 284 285 285
350 351 353 355 356 357 359 360 1 3 4 5 6 6 7 7 7 8 8 9 9 9 9 9 9 9 7 6 6 6 7 7 7 6 7 9 10 9 9 9 9 8 7 5 3 0 356 354 352 351 349 347 344 339 336 332 327 325 323 319 316 313 310 308 306 303 302 300 298 296 295 293 292 292 291 291 289 288 288 288 287 286 286 285 286
354 356 358 0 2 3 4 5 7 8 9 9 10 10 10 11 11 11 10 10 11 12 12 12 12 12 12 12 11 10 9 9 8 8 7 8 9 10 10 9 9 10 10 10 9 8 5 2 360 358 357 356 353 350 347 343 338 334 331 328 323 319 316 314 312 309 307 304 301 298 295 294 292 291 291 290 289 288 288 287 287 287 286 286 286
2 3 4 6 7 8 9 9 10 11 11 11 11 11 11 11 11 11 10 10 10 10 11 12 13 13 14 14 15 14 14 13 13 14 14 13 12 13 13 12 12 12 11 11 12 11 10 8 5 2 1 0 358 356 353 349 345 340 336 333 329 324 320 319 317 315 312 309 305 302 299 297 296 294 292 291 290 289 288 287 286 286 286 285 285
8 9 9 9 9 9 10 10 10 10 11 11 11 11 11 10 10 10 9 9 9 8 8 8 10 11 11 12 12 14 14 15 15 15 15 15 15 15 15 16 16 16 15 15 15 14 15 14 12 10 8 7 6 4 1 358 354 350 346 343 340 336 332 329 328 326 323 319 315 311 309 306 303 300 297 295 293 293 291 288 286 286 286 287 287
11 11 11 10 9 9 9 9 10 10 10 10 9 9 9 8 8 7 7 7 8 8 7 6 6 7 8 8 9 10 11 12 13 13 13 14 14 14 14 15 16 16 17 16 16 16 15 15 16 15 13 11 10 8 7 5 3 0 358 355 353 351 347 343 340 339 337 333 329 326 324 320 315 311 306 302 300 299 297 294 290 288 288 289 289
9 10 10 10 9 8 8 9 9 9 9 8 8 7 7 6 6 5 5 5 5 6 6 6 5 5 5 6 7 7 8 8 9 9 10 11 12 12 12 12 12 13 14 14 14 14 14 13 13 14 13 12 11 9 8 7 5 3 1 360 359 358 357 354 350 348 346 344 342 340 340 338 335 330 324 319 315 310 305 301 298 295 294 292 290
7 8 9 8 8 8 8 8 8 7 6 5 5 5 5 5 4 3 3 3 3 4 5 6 6 5 6 6 6 6 7 7 7 7 8 9 9 10 11 11 11 11 11 11 11 12 11 10 10 10 10 10 9 8 7 6 4 3 1 359 357 357 358 357 356 354 353 351 348 347 348 349 349 348 345 341 338 332 324 319 317 312 306 302 299
5 6 7 7 7 7 6 5 5 5 4 3 2 2 3 3 3 3 3 3 4 4 5 6 6 6 7 7 7 8 8 7 7 8 8 8 9 9 10 11 11 11 10 11 10 10 10 10 9 8 7 7 7 6 6 4 3 1 0 358 356 355 355 356 356 355 355 355 353 351 350 350 351 352 352 351 350 349 343 337 334 327 317 313 311
4 5 5 5 4 3 3 2 1 1 2 2 2 2 2 2 2 4 4 4 5 5 6 6 7 7 8 8 9 9 10 10 10 10 10 10 11 11 10 10 11 11 11 11 10 10 10 9 9 8 7 6 6 5 4 3 2 1 360 358 357 355 354 354 354 354 355 357 357 354 353 352 351 351 351 349 347 346 341 335 334 331 324 319 316
2 3 2 1 1 0 359 359 359 359 360 0 1 2 2 1 2 3 3 4 4 5 5 6 7 7 8 9 9 9 10 11 11 12 12 12 12 12 12 12 11 11 11 11 11 11 11 10 10 10 9 8 8 7 5 4 3 1 0 359 358 357 355 354 353 353 354 355 356 356 356 356 355 354 353 351 348 345 342 338 337 335 331 326 322
359 359 358 358 358 358 357 357 358 358 358 358 359 360 1 1 1 1 1 2 3 4 4 5 6 6 7 8 8 9 10 10 11 12 12 12 12 12 12 12 12 11 11 10 10 10 10 11 11 12 12 11 11 10 8 7 5 3 2 1 360 359 359 357 356 355 354 354 355 356 356 356 357 356 356 355 354 351 348 346 345 343 340 336 332
356 356 355 354 355 355 355 356 356 356 356 357 357 357 359 360 360 360 360 0 1 3 4 4 5 6 7 7 8 9 9 9 10 10 9 9 10 10 9 10 10 10 10 10 10 9 10 10 10 11 12 12 12 11 10 10 8 6 5 4 1 360 359 359 358 359 358 356 356 357 356 356 357 357 357 357 356 355 353 351 350 348 345 341 339
353 353 353 353 353 353 353 354 354 354 355 355 355 355 356 357 358 358 358 359 360 1 3 4 5 6 7 7 8 8 8 8 8 8 7 7 7 7 7 8 8 8 9 9 9 9 10 10 11 12 13 13 13 12 11 12 12 11 9 7 4 2 1 1 1 2 2 1 0 0 359 358 358 358 358 358 357 356 356 354 352 351 348 345 344
350 350 350 350 350 350 351 351 352 352 352 353 353 354 354 355 356 356 357 358 359 0 2 3 4 5 5 6 7 7 7 7 6 6 6 6 5 5 6 6 7 8 8 8 8 9 10 11 13 15 15 14 13 12 11 12 13 13 12 9 7 7 6 6 6 6 6 6 5 4 4 4 3 2 3 3 1 1 2 360 358 359 358 354 354